TVF30KT LFPO-LIPZ

Flight info

Callsign TVF30KT
Flight time N/A
Altitude 35000
Route OKASI DCT OKEKO DCT MOU DCT MADIV DCT MOKIP DCT TUFTA DCT GEVEA DCT ORSUD DCT BIBAN DCT GARLO DCT INVOP DCT SRN DCT DESIP DCT PEXUG DCT LEGLO DCT OSKOR DCT NEVNI DCT ELTAR DCT ADOSA L612 ALBET
Aircraft B738/M-SDE2E3FGHIJ1RWXYZ/LB1

Departure

Time 2026-05-01 14:45
Airport Paris-Orly Airport (LFPO)

Arrival

Time N/A
Airport Venice Marco Polo Airport (LIPZ)
Time Latitude Longitude Altitude Speed Heading
2026-05-01 14:23 48.72630 2.36387 295 ft 0 kts 344°
2026-05-01 14:36 48.72609 2.36396 294 ft 5 kts 344°
2026-05-01 14:36 48.72577 2.36411 294 ft 5 kts 340°
2026-05-01 14:36 48.72556 2.36425 296 ft 2 kts 320°
2026-05-01 14:37 48.72549 2.36439 295 ft 2 kts 283°
2026-05-01 14:37 48.72548 2.36456 295 ft 2 kts 261°
2026-05-01 14:37 48.72550 2.36472 295 ft 2 kts 255°
2026-05-01 14:37 48.72551 2.36477 294 ft 0 kts 255°
2026-05-01 14:41 48.72550 2.36469 295 ft 5 kts 255°
2026-05-01 14:41 48.72534 2.36383 291 ft 10 kts 255°
2026-05-01 14:41 48.72516 2.36280 294 ft 10 kts 253°
2026-05-01 14:41 48.72460 2.36233 292 ft 10 kts 184°
2026-05-01 14:42 48.72413 2.36171 293 ft 10 kts 249°
2026-05-01 14:42 48.72389 2.36048 292 ft 13 kts 255°
2026-05-01 14:42 48.72365 2.35916 290 ft 13 kts 255°
2026-05-01 14:42 48.72342 2.35788 295 ft 13 kts 255°
2026-05-01 14:43 48.72316 2.35664 294 ft 12 kts 241°
2026-05-01 14:43 48.72247 2.35601 290 ft 12 kts 182°
2026-05-01 14:43 48.72168 2.35623 292 ft 12 kts 164°
2026-05-01 14:43 48.72093 2.35662 293 ft 11 kts 153°
2026-05-01 14:44 48.72035 2.35738 290 ft 11 kts 125°
2026-05-01 14:44 48.71953 2.35923 293 ft 10 kts 112°
2026-05-01 14:44 48.71973 2.36028 294 ft 12 kts 73°
2026-05-01 14:45 48.72043 2.36411 297 ft 74 kts 74°
2026-05-01 14:45 48.72528 2.39133 720 ft 162 kts 76°
2026-05-01 14:45 48.72836 2.40867 1436 ft 169 kts 74°
2026-05-01 14:46 48.73163 2.42601 2222 ft 178 kts 74°
2026-05-01 14:46 48.73934 2.46728 2735 ft 226 kts 74°
2026-05-01 14:46 48.74171 2.49173 3039 ft 241 kts 86°
2026-05-01 14:47 48.74246 2.51767 3362 ft 256 kts 88°
2026-05-01 14:47 48.74314 2.54527 3791 ft 267 kts 88°
2026-05-01 14:47 48.74039 2.57308 4499 ft 269 kts 114°
2026-05-01 14:48 48.71276 2.60842 5975 ft 272 kts 166°
2026-05-01 14:48 48.69413 2.61398 6716 ft 274 kts 171°
2026-05-01 14:48 48.65600 2.62378 8217 ft 281 kts 172°
2026-05-01 14:49 48.61722 2.62004 9669 ft 287 kts 172°
2026-05-01 14:49 48.57708 2.63479 10603 ft 317 kts 166°
2026-05-01 14:50 48.54744 2.64538 11269 ft 333 kts 168°
2026-05-01 14:50 48.48622 2.66464 12894 ft 341 kts 169°
2026-05-01 14:51 48.46287 2.67147 12989 ft 343 kts 169°
2026-05-01 14:51 48.41536 2.68502 14227 ft 348 kts 170°
2026-05-01 14:52 48.36738 2.69854 15781 ft 355 kts 170°
2026-05-01 14:52 48.34299 2.70539 16478 ft 359 kts 170°
2026-05-01 14:52 48.29337 2.71930 17888 ft 366 kts 170°
2026-05-01 14:53 48.26817 2.72635 18547 ft 370 kts 170°
2026-05-01 14:53 48.24277 2.73346 19198 ft 374 kts 170°
2026-05-01 14:53 48.21700 2.74066 19833 ft 378 kts 170°
2026-05-01 14:53 48.19102 2.74791 20456 ft 381 kts 170°
2026-05-01 14:54 48.16483 2.75522 21060 ft 385 kts 170°
2026-05-01 14:54 48.13836 2.76260 21659 ft 388 kts 170°
2026-05-01 14:54 48.11169 2.77001 22207 ft 392 kts 170°
2026-05-01 14:54 48.08488 2.77814 22763 ft 395 kts 166°
2026-05-01 14:55 48.05880 2.79178 23287 ft 399 kts 158°
2026-05-01 14:55 48.03315 2.80813 23817 ft 402 kts 157°
2026-05-01 14:55 48.00740 2.82499 24308 ft 406 kts 156°
2026-05-01 14:55 47.98145 2.84198 24799 ft 409 kts 156°
2026-05-01 14:56 47.95527 2.85897 25276 ft 412 kts 157°
2026-05-01 14:56 47.92887 2.87596 25744 ft 415 kts 157°
2026-05-01 14:56 47.90223 2.89297 26192 ft 418 kts 157°
2026-05-01 14:56 47.87543 2.91000 26620 ft 421 kts 157°
2026-05-01 14:57 47.84838 2.92712 27040 ft 424 kts 157°
2026-05-01 14:57 47.79380 2.96160 27855 ft 429 kts 157°
2026-05-01 14:57 47.76619 2.97901 28238 ft 432 kts 157°
2026-05-01 14:58 47.73843 2.99651 28613 ft 434 kts 157°
2026-05-01 14:58 47.71051 3.01408 28978 ft 437 kts 157°
2026-05-01 14:58 47.68244 3.03172 29339 ft 439 kts 157°
2026-05-01 14:58 47.65422 3.04945 29681 ft 442 kts 157°
2026-05-01 14:59 47.62620 3.06703 30019 ft 444 kts 157°
2026-05-01 14:59 47.59766 3.08492 30326 ft 446 kts 157°
2026-05-01 14:59 47.56904 3.10283 30701 ft 447 kts 157°
2026-05-01 14:59 47.54049 3.12068 31163 ft 445 kts 157°
2026-05-01 15:00 47.48369 3.15607 32029 ft 442 kts 158°
2026-05-01 15:00 47.45528 3.17372 32363 ft 443 kts 158°
2026-05-01 15:00 47.42691 3.19134 32744 ft 442 kts 158°
2026-05-01 15:01 47.39862 3.20890 33168 ft 440 kts 158°
2026-05-01 15:01 47.37051 3.22632 33534 ft 439 kts 158°
2026-05-01 15:01 47.34232 3.24378 33840 ft 440 kts 158°
2026-05-01 15:01 47.31410 3.26123 34155 ft 440 kts 158°
2026-05-01 15:02 47.28588 3.27867 34491 ft 439 kts 158°
2026-05-01 15:02 47.27635 3.28456 34608 ft 439 kts 158°
2026-05-01 15:02 47.22965 3.31335 35010 ft 441 kts 158°
2026-05-01 15:03 47.17267 3.34842 35002 ft 444 kts 158°
2026-05-01 15:03 47.11624 3.38306 35001 ft 436 kts 158°
2026-05-01 15:04 47.06011 3.41745 35008 ft 437 kts 158°
2026-05-01 15:04 47.00395 3.45177 35003 ft 439 kts 158°
2026-05-01 15:05 46.94742 3.48624 35010 ft 440 kts 158°
2026-05-01 15:05 46.89088 3.52064 35000 ft 440 kts 158°
2026-05-01 15:06 46.83426 3.55501 35001 ft 440 kts 158°
2026-05-01 15:06 46.77809 3.58905 35006 ft 440 kts 158°
2026-05-01 15:07 46.72441 3.63057 35001 ft 439 kts 136°
2026-05-01 15:07 46.70514 3.66479 34998 ft 438 kts 121°
2026-05-01 15:07 46.69313 3.70534 35002 ft 437 kts 105°
2026-05-01 15:08 46.67906 3.79151 35005 ft 437 kts 103°
2026-05-01 15:08 46.66506 3.87764 34992 ft 438 kts 104°
2026-05-01 15:09 46.65021 3.96353 35001 ft 438 kts 104°
2026-05-01 15:09 46.63528 4.04953 34998 ft 438 kts 104°
2026-05-01 15:10 46.62034 4.13556 34996 ft 439 kts 104°
2026-05-01 15:10 46.59777 4.26475 35003 ft 440 kts 104°
2026-05-01 15:11 46.57749 4.38005 35005 ft 440 kts 104°
2026-05-01 15:12 46.56234 4.46565 35001 ft 440 kts 104°
2026-05-01 15:12 46.53936 4.59483 34993 ft 439 kts 104°
2026-05-01 15:14 46.50091 4.80883 35001 ft 440 kts 104°
2026-05-01 15:14 46.47751 4.93787 35002 ft 442 kts 105°
2026-05-01 15:15 46.44602 5.11019 35008 ft 442 kts 105°
2026-05-01 15:16 46.41406 5.28190 35002 ft 440 kts 105°
2026-05-01 15:18 46.37415 5.49521 34998 ft 438 kts 105°
2026-05-01 15:19 46.34247 5.66537 35009 ft 438 kts 105°
2026-05-01 15:19 46.31859 5.79243 35006 ft 439 kts 105°
2026-05-01 15:20 46.29434 5.92058 34998 ft 442 kts 105°
2026-05-01 15:21 46.27802 6.00638 35020 ft 443 kts 105°
2026-05-01 15:21 46.26162 6.09226 35007 ft 444 kts 105°
2026-05-01 15:22 46.23144 6.21855 35006 ft 443 kts 112°
2026-05-01 15:22 46.20784 6.30070 35008 ft 442 kts 112°
2026-05-01 15:23 46.18449 6.38275 34987 ft 442 kts 112°
2026-05-01 15:23 46.16148 6.46477 34996 ft 441 kts 112°
2026-05-01 15:24 46.13851 6.54679 34985 ft 441 kts 112°
2026-05-01 15:24 46.11545 6.62892 35009 ft 442 kts 112°
2026-05-01 15:25 46.09228 6.71111 35010 ft 443 kts 112°
2026-05-01 15:25 46.06900 6.79338 34989 ft 444 kts 112°
2026-05-01 15:26 46.04560 6.87578 35002 ft 446 kts 112°
2026-05-01 15:26 46.02211 6.95824 35009 ft 450 kts 112°
2026-05-01 15:27 45.99808 7.04234 34994 ft 453 kts 112°
2026-05-01 15:28 45.96239 7.16731 34984 ft 449 kts 110°
2026-05-01 15:28 45.94836 7.25430 34998 ft 448 kts 99°
2026-05-01 15:29 45.93359 7.38814 35012 ft 455 kts 99°
2026-05-01 15:30 45.90677 7.56520 35001 ft 453 kts 104°
2026-05-01 15:31 45.86051 7.82743 35004 ft 450 kts 104°
2026-05-01 15:32 45.83021 8.00137 34987 ft 448 kts 104°
2026-05-01 15:34 45.78463 8.25935 35011 ft 441 kts 104°